Rockford, IL

2:20 PM CDT on July 24, 2017 (GMT -0500)
Greater Rockford

Weather History for KRFD - October, 2013

Change the Weather History Date:

Saturday, October 19, 2013

  Actual Average Record
Temperature  
Mean Temperature 45 °F 51 °F  
Max Temperature 54 °F 62 °F 84 °F (1953)
Min Temperature 35 °F 40 °F 18 °F (1992)
Degree Days  
Heating Degree Days 20 14  
Month to date heating degree days 152 221  
Since 1 July heating degree days 234 352  
Cooling Degree Days 0 0  
Month to date cooling degree days 16 8  
Year to date cooling degree days 890 819  
Moisture  
Dew Point 36 °F    
Average Humidity 69    
Maximum Humidity 92    
Minimum Humidity 45    
Precipitation  
Precipitation 0.01 in 0.08 in 1.72 in (1982)
Month to date precipitation 1.80 1.64  
Year to date precipitation 35.41 30.65  
Snow  
Snow 0.00 in 0.00 in 0.70 in (1989)
Month to date snowfall 0.0 0.0  
Since 1 July snowfall 0.0 0.0  
Since 1 September snowfall 0.0 0.0  
Snow Depth 0.00 in    
Sea Level Pressure  
Sea Level Pressure 29.87 in    
Wind  
Wind Speed 7 mph (SW)    
Max Wind Speed 24 mph    
Max Gust Speed 33 mph    
Visibility 10 miles    
Events Rain    
T = Trace of Precipitation, MM = Missing Value Source: NWS Daily Summary

Daily Weather History Graph

Daily Weather History Graph

Search for Another Location

Airport or City:

Trip Planner

Search our weather history database for the weather conditions in past years. The results will help you decide how hot, cold, wet, or windy it might be!

Date:

Astronomy

Oct. 19, 2013 Rise Set
Actual Time 7:14 AM CDT 6:07 PM CDT
Civil Twilight 6:45 AM CDT 6:36 PM CDT
Nautical Twilight 6:13 AM CDT 7:08 PM CDT
Astronomical Twilight 5:40 AM CDT 7:41 PM CDT
Moon 6:34 PM CDT (10/19) 7:52 AM CDT (10/19)
Length of Visible Light 11h 50m
Length of Day
10h 53m
Waxing Gibbous, 99% of the Moon is Illuminated
Oct 19
Waxing Gibbous
Oct 26
Last Quarter
Nov 3
New
Nov 9
First Quarter
Nov 17
Full

Hourly Weather History & Observations

Time (CDT) Temp. Windchill Dew Point Humidity Pressure Visibility Wind Dir Wind Speed Gust Speed Precip Events Conditions
12:54 AM 43.0 °F 40.3 °F 37.9 °F 82% 29.95 in 10.0 mi SW 4.6 mph - N/A   Mostly Cloudy
1:54 AM 43.0 °F 41.3 °F 37.9 °F 82% 29.93 in 10.0 mi SW 3.5 mph - N/A   Overcast
2:54 AM 42.1 °F - 37.0 °F 82% 29.91 in 10.0 mi Calm Calm - N/A   Mostly Cloudy
3:54 AM 39.9 °F 37.8 °F 36.0 °F 86% 29.89 in 10.0 mi SSW 3.5 mph - N/A   Mostly Cloudy
4:54 AM 39.9 °F 36.7 °F 37.0 °F 89% 29.89 in 10.0 mi South 4.6 mph - N/A   Mostly Cloudy
5:54 AM 37.9 °F 34.4 °F 35.1 °F 89% 29.89 in 10.0 mi South 4.6 mph - N/A   Scattered Clouds
6:54 AM 36.0 °F 32.1 °F 33.1 °F 89% 29.89 in 10.0 mi South 4.6 mph - N/A   Partly Cloudy
7:54 AM 35.1 °F 31.0 °F 33.1 °F 92% 29.89 in 10.0 mi SSW 4.6 mph - N/A   Partly Cloudy
8:54 AM 41.0 °F 36.4 °F 35.1 °F 79% 29.89 in 10.0 mi SW 6.9 mph - N/A   Partly Cloudy
9:54 AM 44.1 °F 38.6 °F 35.1 °F 71% 29.88 in 10.0 mi WSW 10.4 mph - N/A   Mostly Cloudy
10:54 AM 45.0 °F 38.9 °F 35.1 °F 68% 29.87 in 10.0 mi West 12.7 mph - N/A   Overcast
11:54 AM 48.9 °F - 37.0 °F 64% 29.86 in 10.0 mi WSW 12.7 mph - N/A   Mostly Cloudy
12:54 PM 52.0 °F - 34.0 °F 50% 29.83 in 10.0 mi WSW 13.8 mph 21.9 mph N/A   Mostly Cloudy
1:54 PM 51.1 °F - 34.0 °F 52% 29.81 in 10.0 mi West 11.5 mph - N/A   Mostly Cloudy
2:54 PM 53.1 °F - 32.0 °F 45% 29.80 in 10.0 mi West 12.7 mph - N/A   Overcast
3:54 PM 46.9 °F - 36.0 °F 66% 29.83 in 6.0 mi WSW 18.4 mph 33.4 mph 0.00 in Rain Light Rain
4:54 PM 45.0 °F 42.6 °F 39.0 °F 80% 29.83 in 10.0 mi West 4.6 mph - 0.00 in Rain Light Rain
5:54 PM 45.0 °F 40.6 °F 39.0 °F 80% 29.84 in 10.0 mi WSW 8.1 mph - 0.01 in Rain Light Rain
6:54 PM 43.0 °F - 39.0 °F 86% 29.84 in 10.0 mi Calm Calm - 0.00 in   Scattered Clouds
7:54 PM 42.1 °F 40.2 °F 39.9 °F 92% 29.85 in 10.0 mi South 3.5 mph - N/A   Overcast
8:54 PM 44.1 °F 40.8 °F 39.9 °F 85% 29.85 in 10.0 mi SSW 5.8 mph - 0.00 in   Overcast
9:54 PM 44.1 °F 41.5 °F 39.9 °F 85% 29.85 in 10.0 mi SSW 4.6 mph - 0.00 in   Mostly Cloudy
10:54 PM 42.1 °F 40.2 °F 37.9 °F 85% 29.86 in 10.0 mi SW 3.5 mph - N/A   Scattered Clouds
11:54 PM 41.0 °F - 37.9 °F 89% 29.86 in 10.0 mi Calm Calm - N/A   Scattered Clouds